DLH3MT EDDH-EDDF

Flight info

Callsign DLH3MT
Flight time 0h 46m
Altitude 30000
Route AMLUH3B AMLUH M852 DENIX DCT RIMET/N0439F310 T157 KOKEB/N0395F230 T157 KERAX KERAX5A
Aircraft A320/M-SDE3FGHIRWY/LB1

Departure

Time 2026-04-16 10:05
Airport Hamburg Helmut Schmidt Airport (EDDH)

Arrival

Time 2026-04-16 10:51
Airport Frankfurt Main Airport (EDDF)
Time Latitude Longitude Altitude Speed Heading
2026-04-16 09:41 53.63107 10.00400 46 ft 0 kts 85°
2026-04-16 09:52 53.63106 10.00399 46 ft 1 kts 85°
2026-04-16 09:53 53.63105 10.00358 43 ft 4 kts 91°
2026-04-16 09:53 53.63107 10.00313 45 ft 4 kts 98°
2026-04-16 09:53 53.63112 10.00268 41 ft 4 kts 106°
2026-04-16 09:53 53.63121 10.00226 42 ft 4 kts 120°
2026-04-16 09:54 53.63137 10.00193 42 ft 4 kts 156°
2026-04-16 09:54 53.63146 10.00188 44 ft 0 kts 176°
2026-04-16 09:57 53.63115 10.00191 44 ft 9 kts 176°
2026-04-16 09:58 53.63059 10.00168 45 ft 8 kts 207°
2026-04-16 09:58 53.63017 10.00129 46 ft 6 kts 212°
2026-04-16 09:58 53.62983 10.00093 45 ft 5 kts 212°
2026-04-16 09:58 53.62953 10.00062 46 ft 7 kts 212°
2026-04-16 09:59 53.62912 9.99972 46 ft 13 kts 239°
2026-04-16 09:59 53.62896 9.99919 46 ft 0 kts 245°
2026-04-16 10:01 53.62893 9.99907 45 ft 5 kts 245°
2026-04-16 10:02 53.62865 9.99808 47 ft 12 kts 245°
2026-04-16 10:02 53.62881 9.99736 47 ft 0 kts 330°
2026-04-16 10:04 53.62956 9.99667 46 ft 48 kts 333°
2026-04-16 10:04 53.63485 9.99208 46 ft 119 kts 332°
2026-04-16 10:04 53.64389 9.98427 127 ft 164 kts 333°
2026-04-16 10:05 53.65396 9.97588 921 ft 161 kts 329°
2026-04-16 10:05 53.66402 9.96782 1745 ft 158 kts 330°
2026-04-16 10:05 53.67390 9.96007 2497 ft 158 kts 328°
2026-04-16 10:05 53.68430 9.95121 2941 ft 179 kts 333°
2026-04-16 10:06 53.69742 9.94696 3298 ft 207 kts 356°
2026-04-16 10:06 53.71256 9.94676 3773 ft 225 kts 357°
2026-04-16 10:06 53.72786 9.95298 4654 ft 235 kts 31°
2026-04-16 10:06 53.73863 9.97421 5391 ft 251 kts 63°
2026-04-16 10:07 53.74275 10.00365 5847 ft 275 kts 94°
2026-04-16 10:07 53.73681 10.03466 6488 ft 285 kts 129°
2026-04-16 10:07 53.72189 10.05574 7308 ft 280 kts 162°
2026-04-16 10:07 53.70301 10.06125 8276 ft 276 kts 184°
2026-04-16 10:08 53.68365 10.06204 9294 ft 280 kts 183°
2026-04-16 10:08 53.66395 10.06323 10218 ft 285 kts 182°
2026-04-16 10:08 53.64350 10.06462 10691 ft 306 kts 182°
2026-04-16 10:08 53.62132 10.06613 11039 ft 329 kts 181°
2026-04-16 10:09 53.59831 10.06781 11700 ft 339 kts 181°
2026-04-16 10:09 53.57459 10.06961 12512 ft 343 kts 181°
2026-04-16 10:09 53.55061 10.07144 13325 ft 347 kts 181°
2026-04-16 10:09 53.52631 10.07325 14096 ft 351 kts 181°
2026-04-16 10:10 53.50173 10.07505 14812 ft 355 kts 181°
2026-04-16 10:10 53.47692 10.07682 15532 ft 359 kts 181°
2026-04-16 10:10 53.45181 10.07858 16259 ft 362 kts 181°
2026-04-16 10:10 53.42649 10.08033 16972 ft 365 kts 181°
2026-04-16 10:11 53.40098 10.08207 17676 ft 369 kts 180°
2026-04-16 10:11 53.37546 10.08378 18370 ft 372 kts 180°
2026-04-16 10:11 53.34942 10.08555 18959 ft 376 kts 180°
2026-04-16 10:11 53.32316 10.08740 19532 ft 379 kts 180°
2026-04-16 10:12 53.29661 10.08928 20079 ft 383 kts 181°
2026-04-16 10:12 53.26983 10.09116 20637 ft 387 kts 181°
2026-04-16 10:12 53.24280 10.09305 21179 ft 391 kts 181°
2026-04-16 10:12 53.21550 10.09495 21725 ft 394 kts 181°
2026-04-16 10:13 53.18799 10.09686 22258 ft 398 kts 181°
2026-04-16 10:13 53.16016 10.09878 22785 ft 402 kts 181°
2026-04-16 10:13 53.13244 10.10072 23288 ft 405 kts 181°
2026-04-16 10:13 53.10415 10.10268 23788 ft 409 kts 181°
2026-04-16 10:14 53.07555 10.10467 24221 ft 412 kts 181°
2026-04-16 10:14 53.04685 10.10663 24656 ft 415 kts 182°
2026-04-16 10:14 53.01791 10.10856 25093 ft 417 kts 182°
2026-04-16 10:14 52.98879 10.11046 25520 ft 420 kts 182°
2026-04-16 10:15 52.95953 10.11242 25941 ft 422 kts 182°
2026-04-16 10:15 52.93009 10.11446 26361 ft 425 kts 182°
2026-04-16 10:15 52.90048 10.11650 26778 ft 427 kts 182°
2026-04-16 10:15 52.87065 10.11854 27192 ft 430 kts 182°
2026-04-16 10:16 52.84065 10.12056 27605 ft 432 kts 183°
2026-04-16 10:16 52.81046 10.12262 27971 ft 435 kts 183°
2026-04-16 10:16 52.78001 10.12474 28358 ft 438 kts 183°
2026-04-16 10:16 52.74975 10.12683 28745 ft 441 kts 183°
2026-04-16 10:17 52.71891 10.12889 29118 ft 443 kts 183°
2026-04-16 10:17 52.68793 10.13094 29478 ft 445 kts 183°
2026-04-16 10:17 52.65680 10.13300 29830 ft 448 kts 184°
2026-04-16 10:17 52.62561 10.13510 30116 ft 450 kts 184°
2026-04-16 10:18 52.56445 10.13938 30139 ft 437 kts 184°
2026-04-16 10:18 52.50383 10.14347 30164 ft 435 kts 184°
2026-04-16 10:19 52.44332 10.14739 30167 ft 434 kts 184°
2026-04-16 10:19 52.38293 10.15133 30173 ft 434 kts 184°
2026-04-16 10:20 52.32252 10.15534 30155 ft 435 kts 184°
2026-04-16 10:20 52.26203 10.15940 30161 ft 434 kts 184°
2026-04-16 10:21 52.20207 10.16333 30169 ft 434 kts 184°
2026-04-16 10:21 52.14169 10.16742 30173 ft 433 kts 184°
2026-04-16 10:22 52.08139 10.17134 30159 ft 434 kts 184°
2026-04-16 10:22 52.02102 10.17514 30172 ft 434 kts 184°
2026-04-16 10:23 51.96067 10.17900 30176 ft 434 kts 184°
2026-04-16 10:23 51.90068 10.18303 30177 ft 434 kts 184°
2026-04-16 10:24 51.84029 10.18708 30157 ft 434 kts 184°
2026-04-16 10:24 51.77988 10.19092 29881 ft 436 kts 184°
2026-04-16 10:25 51.74955 10.19279 29479 ft 436 kts 184°
2026-04-16 10:25 51.71921 10.19468 29087 ft 437 kts 183°
2026-04-16 10:25 51.68890 10.19664 28700 ft 436 kts 183°
2026-04-16 10:25 51.65858 10.19866 28322 ft 434 kts 183°
2026-04-16 10:26 51.62853 10.20067 27949 ft 432 kts 183°
2026-04-16 10:26 51.59856 10.20266 27555 ft 429 kts 183°
2026-04-16 10:26 51.56878 10.20461 27189 ft 427 kts 183°
2026-04-16 10:26 51.53914 10.20652 26830 ft 425 kts 183°
2026-04-16 10:27 51.50962 10.20837 26474 ft 423 kts 183°
2026-04-16 10:27 51.48025 10.21020 26120 ft 421 kts 183°
2026-04-16 10:27 51.45145 10.21200 25780 ft 419 kts 183°
2026-04-16 10:27 51.42239 10.21382 25434 ft 417 kts 183°
2026-04-16 10:28 51.39345 10.21566 25195 ft 415 kts 182°
2026-04-16 10:28 51.36484 10.21501 25203 ft 408 kts 193°
2026-04-16 10:28 51.33778 10.20320 25213 ft 399 kts 209°
2026-04-16 10:28 51.31407 10.18116 25214 ft 394 kts 218°
2026-04-16 10:29 51.29125 10.15668 25209 ft 394 kts 218°
2026-04-16 10:29 51.26857 10.13225 25212 ft 394 kts 218°
2026-04-16 10:29 51.24582 10.10771 25210 ft 394 kts 218°
2026-04-16 10:29 51.22317 10.08326 25215 ft 394 kts 218°
2026-04-16 10:30 51.20042 10.05872 25214 ft 394 kts 218°
2026-04-16 10:30 51.17770 10.03437 25160 ft 395 kts 218°
2026-04-16 10:30 51.15495 10.01008 24773 ft 390 kts 218°
2026-04-16 10:30 51.13244 9.98617 24170 ft 387 kts 218°
2026-04-16 10:31 51.11017 9.96251 23580 ft 384 kts 218°
2026-04-16 10:31 51.08801 9.93891 22924 ft 380 kts 218°
2026-04-16 10:31 51.06639 9.91591 22306 ft 378 kts 218°
2026-04-16 10:31 51.04459 9.89274 21707 ft 375 kts 218°
2026-04-16 10:32 51.02294 9.86977 21143 ft 372 kts 217°
2026-04-16 10:32 51.00147 9.84703 20591 ft 370 kts 217°
2026-04-16 10:32 50.98012 9.82441 20059 ft 367 kts 217°
2026-04-16 10:32 50.95892 9.80195 19542 ft 365 kts 217°
2026-04-16 10:33 50.93784 9.77968 19040 ft 363 kts 217°
2026-04-16 10:33 50.91689 9.75762 18540 ft 360 kts 217°
2026-04-16 10:33 50.89606 9.73574 18047 ft 359 kts 217°
2026-04-16 10:33 50.87533 9.71392 17541 ft 356 kts 217°
2026-04-16 10:34 50.85472 9.69223 17074 ft 355 kts 217°
2026-04-16 10:34 50.83416 9.67062 16607 ft 353 kts 216°
2026-04-16 10:34 50.81377 9.64925 16145 ft 351 kts 216°
2026-04-16 10:34 50.79343 9.62793 15692 ft 349 kts 216°
2026-04-16 10:35 50.77347 9.60700 15258 ft 347 kts 216°
2026-04-16 10:35 50.75339 9.58601 14811 ft 346 kts 216°
2026-04-16 10:35 50.73338 9.56511 14371 ft 344 kts 216°
2026-04-16 10:35 50.71346 9.54432 13935 ft 342 kts 216°
2026-04-16 10:36 50.69366 9.52366 13451 ft 340 kts 216°
2026-04-16 10:36 50.67397 9.50313 12971 ft 338 kts 216°
2026-04-16 10:36 50.65438 9.48276 12502 ft 336 kts 216°
2026-04-16 10:36 50.63493 9.46251 12037 ft 334 kts 216°
2026-04-16 10:37 50.61561 9.44242 11580 ft 331 kts 216°
2026-04-16 10:37 50.59663 9.42274 11128 ft 329 kts 216°
2026-04-16 10:37 50.57756 9.40303 10692 ft 327 kts 215°
2026-04-16 10:37 50.55863 9.38345 10205 ft 323 kts 215°
2026-04-16 10:38 50.54026 9.36448 9691 ft 308 kts 215°
2026-04-16 10:38 50.52280 9.34650 9278 ft 292 kts 215°
2026-04-16 10:38 50.50596 9.32914 8889 ft 286 kts 215°
2026-04-16 10:38 50.48960 9.31227 8491 ft 278 kts 216°
2026-04-16 10:39 50.47349 9.29561 8151 ft 278 kts 214°
2026-04-16 10:39 50.45731 9.27888 7775 ft 278 kts 214°
2026-04-16 10:39 50.44118 9.26222 7390 ft 276 kts 214°
2026-04-16 10:39 50.42517 9.24572 7022 ft 274 kts 214°
2026-04-16 10:40 50.40925 9.22936 6654 ft 273 kts 214°
2026-04-16 10:40 50.39359 9.21328 6268 ft 271 kts 214°
2026-04-16 10:40 50.37787 9.19715 5878 ft 270 kts 214°
2026-04-16 10:40 50.36220 9.18109 5488 ft 268 kts 214°
2026-04-16 10:41 50.34665 9.16518 5111 ft 266 kts 213°
2026-04-16 10:41 50.33123 9.14944 4987 ft 264 kts 213°
2026-04-16 10:41 50.31579 9.13368 5001 ft 265 kts 213°
2026-04-16 10:41 50.30034 9.11793 4994 ft 265 kts 213°
2026-04-16 10:42 50.28534 9.10268 4997 ft 248 kts 213°
2026-04-16 10:42 50.27138 9.08846 4998 ft 231 kts 213°
2026-04-16 10:42 50.25825 9.07507 4996 ft 226 kts 213°
2026-04-16 10:42 50.24493 9.06152 4998 ft 234 kts 213°
2026-04-16 10:43 50.23121 9.04757 4998 ft 236 kts 213°
2026-04-16 10:43 50.21743 9.03356 4999 ft 236 kts 213°
2026-04-16 10:43 50.20369 9.01959 5003 ft 236 kts 213°
2026-04-16 10:43 50.18992 9.00559 5005 ft 236 kts 213°
2026-04-16 10:44 50.17612 8.99158 5016 ft 236 kts 213°
2026-04-16 10:44 50.16234 8.97758 5007 ft 237 kts 213°
2026-04-16 10:44 50.14949 8.96162 5001 ft 236 kts 230°
2026-04-16 10:44 50.14162 8.93930 5015 ft 233 kts 249°
2026-04-16 10:45 50.13624 8.91622 4996 ft 220 kts 250°
2026-04-16 10:45 50.13123 8.89451 4995 ft 206 kts 250°
2026-04-16 10:45 50.12802 8.88080 5002 ft 201 kts 250°
2026-04-16 10:45 50.12325 8.86047 4973 ft 199 kts 250°
2026-04-16 10:46 50.11847 8.84017 4761 ft 200 kts 250°
2026-04-16 10:46 50.11208 8.81303 4416 ft 201 kts 250°
2026-04-16 10:46 50.10883 8.79925 4219 ft 199 kts 249°
2026-04-16 10:46 50.10411 8.77925 3904 ft 193 kts 249°
2026-04-16 10:47 50.09962 8.76024 3652 ft 182 kts 249°
2026-04-16 10:47 50.09535 8.74216 3392 ft 175 kts 249°
2026-04-16 10:47 50.09123 8.72476 3140 ft 172 kts 248°
2026-04-16 10:47 50.08714 8.70749 2898 ft 167 kts 248°
2026-04-16 10:48 50.08321 8.69103 2682 ft 157 kts 248°
2026-04-16 10:48 50.07962 8.67537 2403 ft 151 kts 249°
2026-04-16 10:48 50.07623 8.66025 2121 ft 145 kts 248°
2026-04-16 10:48 50.07270 8.64577 1887 ft 139 kts 246°
2026-04-16 10:49 50.06916 8.63145 1643 ft 144 kts 248°
2026-04-16 10:49 50.06562 8.61693 1486 ft 144 kts 248°
2026-04-16 10:49 50.06213 8.60219 1351 ft 148 kts 249°
2026-04-16 10:49 50.05862 8.58700 1156 ft 149 kts 249°
2026-04-16 10:50 50.05508 8.57202 960 ft 150 kts 249°
2026-04-16 10:50 50.05153 8.55708 696 ft 143 kts 248°
2026-04-16 10:50 50.04812 8.54307 480 ft 134 kts 248°
2026-04-16 10:50 50.04495 8.52978 354 ft 127 kts 249°
2026-04-16 10:51 50.04234 8.51920 350 ft 66 kts 250°
2026-04-16 10:51 50.04161 8.51657 352 ft 11 kts 232°
2026-04-16 10:51 50.04073 8.51489 351 ft 22 kts 224°
2026-04-16 10:51 50.03950 8.51329 348 ft 24 kts 214°
2026-04-16 10:52 50.03837 8.51185 349 ft 16 kts 217°
2026-04-16 10:52 50.03714 8.51170 347 ft 21 kts 148°
2026-04-16 10:52 50.03625 8.51388 348 ft 27 kts 116°
2026-04-16 10:52 50.03533 8.51671 350 ft 27 kts 117°
2026-04-16 10:53 50.03524 8.51960 350 ft 28 kts 83°
2026-04-16 10:53 50.03548 8.52276 350 ft 30 kts 82°
2026-04-16 10:53 50.03595 8.52597 350 ft 29 kts 77°
2026-04-16 10:53 50.03628 8.52831 346 ft 20 kts 107°
2026-04-16 10:54 50.03583 8.52954 346 ft 12 kts 87°
2026-04-16 10:54 50.03613 8.53087 354 ft 16 kts 70°
2026-04-16 10:54 50.03659 8.53280 350 ft 22 kts 69°
2026-04-16 10:54 50.03708 8.53518 349 ft 20 kts 95°
2026-04-16 10:55 50.03661 8.53613 351 ft 12 kts 104°
2026-04-16 10:55 50.03685 8.53741 353 ft 14 kts 71°
2026-04-16 10:55 50.03723 8.53901 354 ft 18 kts 69°
2026-04-16 10:55 50.03772 8.54105 350 ft 22 kts 70°
2026-04-16 10:56 50.03835 8.54330 353 ft 16 kts 38°
2026-04-16 10:56 50.03889 8.54475 351 ft 10 kts 70°
2026-04-16 10:56 50.03865 8.54558 348 ft 6 kts 158°
2026-04-16 10:56 50.03833 8.54577 352 ft 3 kts 161°
2026-04-16 10:57 50.03824 8.54581 349 ft 0 kts 161°
2026-04-16 10:57 50.03823 8.54582 348 ft 0 kts 160°